| time (UTC) | temp F | wind direction | speed MPH | gust MPH | rain 1hr in | rain 24hr in | rain mn in | humidity % | barometer mb |
| 20260510230020 | 58 | 315 | 4.0 | 8.0 | 0.00 | 0.04 | 0.04 | 53 | 1013.0 |
| 20260510225040 | 58 | 315 | 7.0 | 11.0 | 0.00 | 0.04 | 0.04 | 51 | 1012.9 |
| 20260510224018 | 59 | 293 | 7.0 | 11.0 | 0.00 | 0.04 | 0.04 | 53 | 1012.9 |
| 20260510223018 | 59 | 315 | 9.0 | 15.0 | 0.00 | 0.04 | 0.04 | 53 | 1012.9 |
| 20260510222018 | 60 | 338 | 9.0 | 13.0 | 0.00 | 0.04 | 0.04 | 50 | 1012.8 |
| 20260510221020 | 61 | 315 | 7.0 | 11.0 | 0.00 | 0.04 | 0.04 | 51 | 1012.6 |
| 20260510220018 | 61 | 315 | 6.0 | 13.0 | 0.00 | 0.04 | 0.04 | 50 | 1012.7 |
| 20260510215100 | 60 | 270 | 7.0 | 16.0 | 0.00 | 0.04 | 0.04 | 49 | 1012.4 |
| 20260510214018 | 60 | 225 | 8.0 | 12.0 | 0.00 | 0.04 | 0.04 | 49 | 1012.4 |
| 20260510213018 | 60 | 293 | 6.0 | 9.0 | 0.00 | 0.04 | 0.04 | 51 | 1012.2 |
| 20260510212020 | 61 | 293 | 7.0 | 18.0 | 0.00 | 0.04 | 0.04 | 50 | 1012.2 |
| 20260510211018 | 61 | 225 | 9.0 | 15.0 | 0.00 | 0.04 | 0.04 | 46 | 1012.1 |
| 20260510210040 | 61 | 270 | 6.0 | 25.0 | 0.00 | 0.04 | 0.04 | 45 | 1012.0 |
| 20260510205040 | 60 | 270 | 9.0 | 18.0 | 0.00 | 0.04 | 0.04 | 45 | 1011.9 |
| 20260510204040 | 60 | 225 | 7.0 | 12.0 | 0.00 | 0.04 | 0.04 | 50 | 1011.7 |
| 20260510203020 | 60 | 315 | 4.0 | 10.0 | 0.00 | 0.04 | 0.04 | 61 | 1011.7 |
| 20260510202018 | 59 | 225 | 6.0 | 11.0 | 0.00 | 0.04 | 0.04 | 67 | 1011.6 |
| 20260510201042 | 59 | 203 | 7.0 | 16.0 | 0.00 | 0.04 | 0.04 | 68 | 1011.5 |
| 20260510200020 | 59 | 203 | 7.0 | 15.0 | 0.00 | 0.04 | 0.04 | 73 | 1011.5 |
| 20260510195022 | 58 | 203 | 5.0 | 9.0 | 0.00 | 0.04 | 0.04 | 77 | 1011.6 |
| 20260510194040 | 57 | 203 | 6.0 | 12.0 | 0.00 | 0.04 | 0.04 | 78 | 1011.9 |
| 20260510193018 | 57 | 203 | 5.0 | 12.0 | 0.00 | 0.04 | 0.04 | 80 | 1012.0 |
| 20260510192024 | 57 | 248 | 8.0 | 13.0 | 0.00 | 0.04 | 0.04 | 81 | 1012.0 |
| 20260510191042 | 57 | 203 | 5.0 | 12.0 | 0.00 | 0.04 | 0.04 | 81 | 1012.0 |
| 20260510190018 | 56 | 203 | 5.0 | 11.0 | 0.00 | 0.04 | 0.04 | 83 | 1012.1 |
| 20260510185024 | 56 | 203 | 5.0 | 9.0 | 0.00 | 0.04 | 0.04 | 84 | 1012.1 |
| 20260510184018 | 55 | 203 | 6.0 | 13.0 | 0.00 | 0.04 | 0.04 | 84 | 1012.2 |
| 20260510183017 | 55 | 203 | 5.0 | 13.0 | 0.00 | 0.04 | 0.04 | 85 | 1012.5 |
| 20260510182018 | 55 | 203 | 5.0 | 12.0 | 0.00 | 0.04 | 0.04 | 86 | 1012.4 |
| 20260510181018 | 54 | 203 | 5.0 | 11.0 | 0.00 | 0.04 | 0.04 | 87 | 1012.3 |
| 20260510180042 | 54 | 225 | 5.0 | 10.0 | 0.00 | 0.04 | 0.04 | 88 | 1012.4 |
| 20260510175040 | 53 | 225 | 6.0 | 10.0 | 0.00 | 0.04 | 0.04 | 90 | 1012.3 |
| 20260510174018 | 53 | 203 | 5.0 | 11.0 | 0.00 | 0.04 | 0.04 | 90 | 1012.3 |
| 20260510173018 | 53 | 225 | 6.0 | 11.0 | 0.00 | 0.04 | 0.04 | 90 | 1012.4 |
| 20260510172018 | 52 | 225 | 9.0 | 16.0 | 0.00 | 0.04 | 0.04 | 90 | 1012.3 |
| 20260510171040 | 52 | 225 | 8.0 | 15.0 | 0.00 | 0.04 | 0.04 | 90 | 1012.3 |
| 20260510165019 | 52 | 225 | 7.0 | 12.0 | 0.01 | 0.04 | 0.04 | 92 | 1012.3 |
| 20260510164020 | 52 | 225 | 7.0 | 12.0 | 0.03 | 0.04 | 0.04 | 92 | 1012.2 |
| 20260510163020 | 52 | 203 | 5.0 | 9.0 | 0.04 | 0.04 | 0.04 | 93 | 1012.3 |
| 20260510162021 | 52 | 225 | 5.0 | 9.0 | 0.04 | 0.04 | 0.04 | 93 | 1012.3 |
| 20260510161020 | 52 | 203 | 2.0 | 5.0 | 0.04 | 0.04 | 0.04 | 92 | 1012.2 |
| 20260510160020 | 52 | 225 | 2.0 | 5.0 | 0.04 | 0.04 | 0.04 | 91 | 1012.2 |
| 20260510155019 | 53 | 225 | 4.0 | 8.0 | 0.03 | 0.03 | 0.03 | 89 | 1012.3 |
| 20260510154022 | 54 | 248 | 5.0 | 8.0 | 0.01 | 0.01 | 0.01 | 84 | 1012.3 |
| 20260510153020 | 54 | 225 | 8.0 | 13.0 | 0.00 | 0.00 | 0.00 | 81 | 1012.2 |
| 20260510152621 | 54 | 248 | 6.0 | 10.0 | 0.00 | 0.00 | 0.00 | 80 | 1011.9 |
| 20260510152112 | 54 | 225 | 7.0 | 11.0 | 0.00 | 0.00 | 0.00 | 80 | 1011.9 |
| 20260510151634 | 54 | 203 | 7.0 | 11.0 | 0.00 | 0.00 | 0.00 | 80 | 1011.9 |
| 20260510151156 | 54 | 225 | 7.0 | 16.0 | 0.00 | 0.00 | 0.00 | 80 | 1012.0 |
| 20260510150715 | 55 | 225 | 7.0 | 11.0 | 0.00 | 0.00 | 0.00 | 79 | 1011.9 |
| 20260510150002 | 55 | 225 | 8.0 | 13.0 | 0.00 | 0.00 | 0.00 | 79 | 1011.9 |
| 20260510145529 | 55 | 225 | 9.0 | 18.0 | 0.00 | 0.00 | 0.00 | 79 | 1012.0 |
| 20260510145045 | 55 | 225 | 8.0 | 13.0 | 0.00 | 0.00 | 0.00 | 78 | 1012.0 |
| 20260510144607 | 55 | 248 | 7.0 | 12.0 | 0.00 | 0.00 | 0.00 | 79 | 1012.0 |
| 20260510144126 | 55 | 248 | 6.0 | 11.0 | 0.00 | 0.00 | 0.00 | 78 | 1011.9 |
| 20260510143647 | 55 | 270 | 6.0 | 11.0 | 0.00 | 0.00 | 0.00 | 78 | 1012.0 |
| 20260510143206 | 55 | 225 | 7.0 | 13.0 | 0.00 | 0.00 | 0.00 | 78 | 1012.1 |
| 20260510142523 | 55 | 248 | 8.0 | 13.0 | 0.00 | 0.00 | 0.00 | 79 | 1012.1 |
| 20260510142027 | 55 | 225 | 9.0 | 14.0 | 0.00 | 0.00 | 0.00 | 78 | 1012.1 |
| 20260510141548 | 55 | 248 | 8.0 | 12.0 | 0.00 | 0.00 | 0.00 | 78 | 1012.0 |
| 20260510141128 | 55 | 248 | 8.0 | 12.0 | 0.00 | 0.00 | 0.00 | 80 | 1012.0 |
| 20260510140627 | 55 | 270 | 8.0 | 12.0 | 0.00 | 0.00 | 0.00 | 80 | 1011.8 |
| 20260510140206 | 55 | 248 | 7.0 | 10.0 | 0.00 | 0.00 | 0.00 | 80 | 1011.8 |
| 20260510135708 | 54 | 225 | 7.0 | 12.0 | 0.00 | 0.00 | 0.00 | 81 | 1011.7 |
| 20260510135006 | 54 | 225 | 7.0 | 9.0 | 0.00 | 0.00 | 0.00 | 81 | 1011.5 |
| 20260510134525 | 54 | 248 | 6.0 | 10.0 | 0.00 | 0.00 | 0.00 | 81 | 1011.4 |
| 20260510134045 | 54 | 225 | 7.0 | 12.0 | 0.00 | 0.00 | 0.00 | 81 | 1011.7 |
| 20260510133604 | 54 | 203 | 6.0 | 16.0 | 0.00 | 0.00 | 0.00 | 82 | 1011.9 |
| 20260510133124 | 54 | 225 | 9.0 | 14.0 | 0.00 | 0.00 | 0.00 | 82 | 1012.0 |
| 20260510132712 | 54 | 203 | 7.0 | 13.0 | 0.00 | 0.00 | 0.00 | 83 | 1012.1 |
| 20260510132207 | 53 | 203 | 5.0 | 8.0 | 0.00 | 0.00 | 0.00 | 83 | 1012.0 |
| 20260510131529 | 53 | 203 | 5.0 | 10.0 | 0.00 | 0.00 | 0.00 | 83 | 1011.9 |
| 20260510131024 | 53 | 203 | 6.0 | 12.0 | 0.00 | 0.00 | 0.00 | 84 | 1012.0 |
| 20260510130539 | 52 | 203 | 6.0 | 14.0 | 0.00 | 0.00 | 0.00 | 85 | 1012.0 |
| 20260510130104 | 52 | 225 | 8.0 | 14.0 | 0.00 | 0.00 | 0.00 | 86 | 1012.1 |
| 20260510125617 | 52 | 225 | 9.0 | 14.0 | 0.00 | 0.00 | 0.00 | 86 | 1012.0 |
| 20260510125139 | 52 | 225 | 8.0 | 17.0 | 0.00 | 0.00 | 0.00 | 86 | 1012.0 |
| 20260510124515 | 51 | 225 | 6.0 | 11.0 | 0.00 | 0.00 | 0.00 | 87 | 1011.6 |
| 20260510123520 | 51 | 203 | 5.0 | 12.0 | 0.00 | 0.00 | 0.00 | 88 | 1011.6 |
| 20260510123035 | 51 | 225 | 5.0 | 11.0 | 0.00 | 0.00 | 0.00 | 88 | 1011.8 |
| 20260510122601 | 51 | 225 | 7.0 | 13.0 | 0.00 | 0.00 | 0.00 | 89 | 1012.0 |
| 20260510122116 | 50 | 270 | 4.0 | 9.0 | 0.00 | 0.00 | 0.00 | 89 | 1012.1 |
| 20260510121638 | 50 | 225 | 4.0 | 9.0 | 0.00 | 0.00 | 0.00 | 90 | 1012.1 |
| 20260510121240 | 50 | 225 | 5.0 | 8.0 | 0.00 | 0.00 | 0.00 | 90 | 1012.0 |
| 20260510120716 | 50 | 225 | 5.0 | 9.0 | 0.00 | 0.00 | 0.00 | 90 | 1011.9 |
| 20260510120014 | 50 | 225 | 6.0 | 9.0 | 0.00 | 0.00 | 0.00 | 91 | 1011.9 |
| 20260510115624 | 49 | 225 | 4.0 | 9.0 | 0.00 | 0.00 | 0.00 | 92 | 1011.9 |
| 20260510115059 | 49 | 225 | 2.0 | 4.0 | 0.00 | 0.00 | 0.00 | 93 | 1011.9 |
| 20260510114620 | 49 | 225 | 2.0 | 4.0 | 0.00 | 0.00 | 0.00 | 93 | 1011.7 |
| 20260510114137 | 48 | 225 | 3.0 | 5.0 | 0.00 | 0.00 | 0.00 | 93 | 1011.7 |
| 20260510113657 | 48 | 225 | 2.0 | 5.0 | 0.00 | 0.00 | 0.00 | 93 | 1011.6 |
| 20260510113213 | 48 | 203 | 2.0 | 5.0 | 0.00 | 0.00 | 0.00 | 94 | 1011.4 |
| 20260510112511 | 48 | 180 | 1.0 | 2.0 | 0.00 | 0.00 | 0.00 | 94 | 1011.4 |
| 20260510112031 | 47 | 135 | 1.0 | 4.0 | 0.00 | 0.00 | 0.00 | 95 | 1011.3 |
| 20260510111616 | 47 | 0.0 | 1.0 | 0.00 | 0.00 | 0.00 | 96 | 1011.4 | |
| 20260510111117 | 47 | 203 | 1.0 | 2.0 | 0.00 | 0.00 | 0.00 | 96 | 1011.5 |
| 20260510110632 | 46 | 225 | 2.0 | 4.0 | 0.00 | 0.00 | 0.00 | 97 | 1011.6 |
| 20260510110140 | 46 | 225 | 1.0 | 3.0 | 0.00 | 0.00 | 0.00 | 97 | 1011.5 |
| 20260510105714 | 46 | 0.0 | 0.0 | 0.00 | 0.00 | 0.00 | 98 | 1011.4 | |
| 20260510105019 | 46 | 0.0 | 0.0 | 0.00 | 0.00 | 0.00 | 97 | 1011.4 | |
| 20260510104538 | 45 | 0.0 | 0.0 | 0.00 | 0.00 | 0.00 | 97 | 1011.3 | |
| 20260510104057 | 45 | 0.0 | 1.0 | 0.00 | 0.00 | 0.00 | 97 | 1011.1 | |
| 20260510103619 | 45 | 0.0 | 1.0 | 0.00 | 0.00 | 0.00 | 97 | 1011.1 | |
| 20260510103137 | 45 | 0.0 | 2.0 | 0.00 | 0.00 | 0.00 | 97 | 1010.7 | |
| 20260510102652 | 45 | 0.0 | 2.0 | 0.00 | 0.00 | 0.00 | 97 | 1010.8 | |
| 20260510102214 | 45 | 0.0 | 2.0 | 0.00 | 0.00 | 0.00 | 96 | 1010.7 | |
| 20260510101553 | 45 | 0.0 | 1.0 | 0.00 | 0.00 | 0.00 | 96 | 1010.6 | |
| 20260510101035 | 45 | 0.0 | 0.0 | 0.00 | 0.00 | 0.00 | 96 | 1010.6 | |
| 20260510100614 | 45 | 338 | 1.0 | 3.0 | 0.00 | 0.00 | 0.00 | 96 | 1010.6 |
| 20260510100115 | 45 | 0.0 | 1.0 | 0.00 | 0.00 | 0.00 | 96 | 1010.4 | |
| 20260510095657 | 45 | 0.0 | 1.0 | 0.00 | 0.00 | 0.00 | 96 | 1010.4 | |
| 20260510095211 | 45 | 45 | 1.0 | 2.0 | 0.00 | 0.00 | 0.00 | 96 | 1010.1 |
| 20260510094714 | 45 | 0.0 | 2.0 | 0.00 | 0.00 | 0.00 | 96 | 1010.2 | |
| 20260510094013 | 45 | 0.0 | 1.0 | 0.00 | 0.00 | 0.00 | 95 | 1010.0 | |
| 20260510093553 | 45 | 0.0 | 1.0 | 0.00 | 0.00 | 0.00 | 95 | 1010.1 | |
| 20260510093050 | 45 | 0.0 | 1.0 | 0.00 | 0.00 | 0.00 | 95 | 1010.2 | |
| 20260510092605 | 45 | 0.0 | 1.0 | 0.00 | 0.00 | 0.00 | 95 | 1010.3 | |
| 20260510092132 | 45 | 0.0 | 0.0 | 0.00 | 0.00 | 0.00 | 95 | 1010.1 | |
| 20260510091647 | 45 | 0.0 | 0.0 | 0.00 | 0.00 | 0.00 | 95 | 1010.1 | |
| 20260510091227 | 45 | 0.0 | 0.0 | 0.00 | 0.00 | 0.00 | 94 | 1010.3 | |
| 20260510090511 | 45 | 0.0 | 1.0 | 0.00 | 0.00 | 0.00 | 94 | 1010.3 | |
| 20260510090030 | 45 | 45 | 1.0 | 2.0 | 0.00 | 0.00 | 0.00 | 95 | 1010.3 |
| 20260510085552 | 44 | 0.0 | 1.0 | 0.00 | 0.00 | 0.00 | 93 | 1010.2 | |
| 20260510085112 | 44 | 0.0 | 0.0 | 0.00 | 0.00 | 0.00 | 93 | 1010.2 | |
| 20260510084631 | 45 | 0.0 | 1.0 | 0.00 | 0.00 | 0.00 | 93 | 1010.4 | |
| 20260510084142 | 45 | 0.0 | 1.0 | 0.00 | 0.00 | 0.00 | 93 | 1010.5 | |
| 20260510083707 | 45 | 0.0 | 1.0 | 0.00 | 0.00 | 0.00 | 94 | 1010.4 | |
| 20260510083005 | 44 | 0.0 | 2.0 | 0.00 | 0.00 | 0.00 | 93 | 1010.5 | |
| 20260510082551 | 44 | 0.0 | 1.0 | 0.00 | 0.00 | 0.00 | 93 | 1010.3 | |
| 20260510082049 | 44 | 0.0 | 0.0 | 0.00 | 0.00 | 0.00 | 93 | 1010.5 | |
| 20260510081608 | 45 | 0.0 | 1.0 | 0.00 | 0.00 | 0.00 | 93 | 1010.4 | |
| 20260510081122 | 45 | 0.0 | 2.0 | 0.00 | 0.00 | 0.00 | 93 | 1010.6 | |
| 20260510080647 | 45 | 338 | 1.0 | 3.0 | 0.00 | 0.00 | 0.00 | 93 | 1010.6 |
| 20260510080213 | 45 | 0.0 | 0.0 | 0.00 | 0.00 | 0.00 | 92 | 1010.7 | |
| 20260510075536 | 45 | 0.0 | 0.0 | 0.00 | 0.00 | 0.00 | 92 | 1010.7 | |
| 20260510075049 | 45 | 0.0 | 0.0 | 0.00 | 0.00 | 0.00 | 92 | 1010.7 | |
| 20260510074626 | 45 | 0.0 | 1.0 | 0.00 | 0.00 | 0.00 | 92 | 1010.8 | |
| 20260510074111 | 45 | 0.0 | 1.0 | 0.00 | 0.00 | 0.00 | 91 | 1011.0 | |
| 20260510073041 | 45 | 0.0 | 2.0 | 0.00 | 0.00 | 0.00 | 91 | 1011.1 | |
| 20260510072020 | 45 | 0.0 | 1.0 | 0.00 | 0.00 | 0.00 | 91 | 1011.0 | |
| 20260510071018 | 45 | 0.0 | 0.0 | 0.00 | 0.00 | 0.00 | 91 | 1011.0 | |
| 20260510070020 | 45 | 0.0 | 0.0 | 0.00 | 0.00 | 0.00 | 91 | 1011.0 | |
| 20260510065020 | 45 | 0.0 | 0.0 | 0.00 | 0.00 | 0.00 | 91 | 1011.0 | |
| 20260510064014 | 45 | 0.0 | 0.0 | 0.00 | 0.00 | 0.00 | 90 | 1011.0 | |
| 20260510063518 | 45 | 0.0 | 0.0 | 0.00 | 0.00 | 0.00 | 90 | 1011.1 | |
| 20260510062518 | 45 | 0.0 | 0.0 | 0.00 | 0.00 | 0.00 | 90 | 1011.4 | |
| 20260510061519 | 45 | 0.0 | 0.0 | 0.00 | 0.00 | 0.00 | 89 | 1011.3 | |
| 20260510060520 | 45 | 0.0 | 0.0 | 0.00 | 0.00 | 0.00 | 89 | 1011.3 | |
| 20260510055522 | 45 | 0.0 | 0.0 | 0.00 | 0.00 | 0.00 | 89 | 1011.3 | |
| 20260510054540 | 46 | 0.0 | 0.0 | 0.00 | 0.00 | 0.00 | 88 | 1011.5 | |
| 20260510053520 | 46 | 0.0 | 1.0 | 0.00 | 0.00 | 0.00 | 88 | 1011.7 | |
| 20260510052540 | 46 | 0.0 | 0.0 | 0.00 | 0.00 | 0.00 | 88 | 1011.7 | |
| 20260510051518 | 46 | 0.0 | 0.0 | 0.00 | 0.00 | 0.00 | 87 | 1011.6 | |
| 20260510050518 | 46 | 0.0 | 0.0 | 0.00 | 0.00 | 0.00 | 87 | 1011.5 | |
| 20260510045518 | 46 | 0.0 | 1.0 | 0.00 | 0.00 | 0.00 | 86 | 1011.6 | |
| 20260510044518 | 46 | 0.0 | 0.0 | 0.00 | 0.00 | 0.00 | 86 | 1011.7 | |
| 20260510043518 | 46 | 248 | 1.0 | 2.0 | 0.00 | 0.00 | 0.00 | 86 | 1012.0 |
| 20260510042518 | 46 | 225 | 1.0 | 3.0 | 0.00 | 0.00 | 0.00 | 87 | 1012.0 |
| 20260510041520 | 46 | 0.0 | 2.0 | 0.00 | 0.00 | 0.00 | 87 | 1012.0 | |
| 20260510040503 | 46 | 225 | 1.0 | 3.0 | 0.00 | 0.00 | 0.00 | 85 | 1012.0 |
| 20260510040018 | 46 | 0.0 | 3.0 | 0.00 | 0.00 | 0.00 | 86 | 1012.1 | |
| 20260510035020 | 46 | 0.0 | 2.0 | 0.00 | 0.00 | 0.00 | 85 | 1012.0 | |
| 20260510034018 | 46 | 158 | 1.0 | 4.0 | 0.00 | 0.00 | 0.00 | 85 | 1011.9 |
| 20260510033018 | 46 | 180 | 1.0 | 4.0 | 0.00 | 0.00 | 0.00 | 85 | 1012.1 |
| 20260510032018 | 46 | 135 | 1.0 | 3.0 | 0.00 | 0.00 | 0.00 | 84 | 1012.0 |
| 20260510031038 | 46 | 135 | 1.0 | 7.0 | 0.00 | 0.00 | 0.00 | 84 | 1012.0 |
| 20260510030018 | 46 | 158 | 1.0 | 3.0 | 0.00 | 0.00 | 0.00 | 84 | 1012.2 |
| 20260510025150 | 46 | 0.0 | 2.0 | 0.00 | 0.00 | 0.00 | 84 | 1012.4 | |
| 20260510024020 | 46 | 0.0 | 2.0 | 0.00 | 0.00 | 0.00 | 83 | 1012.1 | |
| 20260510023018 | 46 | 225 | 1.0 | 4.0 | 0.00 | 0.00 | 0.00 | 83 | 1012.1 |
| 20260510022206 | 46 | 135 | 1.0 | 5.0 | 0.00 | 0.00 | 0.00 | 83 | 1012.0 |
| 20260510021018 | 46 | 158 | 1.0 | 5.0 | 0.00 | 0.00 | 0.00 | 83 | 1012.1 |
| 20260510020040 | 46 | 0.0 | 3.0 | 0.00 | 0.00 | 0.00 | 83 | 1012.3 | |
| 20260510015040 | 46 | 158 | 1.0 | 4.0 | 0.00 | 0.00 | 0.00 | 82 | 1012.5 |
| 20260510014018 | 46 | 0.0 | 2.0 | 0.00 | 0.00 | 0.00 | 83 | 1012.6 | |
| 20260510013020 | 46 | 113 | 1.0 | 4.0 | 0.00 | 0.00 | 0.00 | 82 | 1012.6 |
| 20260510012018 | 46 | 0.0 | 3.0 | 0.00 | 0.00 | 0.00 | 82 | 1012.5 | |
| 20260510011020 | 46 | 158 | 2.0 | 10.0 | 0.00 | 0.00 | 0.00 | 82 | 1012.2 |
| 20260510010018 | 46 | 158 | 1.0 | 2.0 | 0.00 | 0.00 | 0.00 | 82 | 1012.6 |
| 20260510005020 | 46 | 0.0 | 2.0 | 0.00 | 0.00 | 0.00 | 82 | 1012.4 | |
| 20260510004038 | 47 | 135 | 1.0 | 5.0 | 0.00 | 0.00 | 0.00 | 82 | 1012.1 |
| 20260510003020 | 47 | 0.0 | 2.0 | 0.00 | 0.00 | 0.00 | 82 | 1011.8 | |
| 20260510002018 | 47 | 0.0 | 1.0 | 0.00 | 0.00 | 0.00 | 81 | 1011.8 | |
| 20260510001018 | 47 | 0.0 | 2.0 | 0.00 | 0.00 | 0.00 | 81 | 1011.8 | |
| 20260510000020 | 47 | 0.0 | 1.0 | 0.00 | 0.00 | 0.00 | 80 | 1011.8 | |
| 20260509235020 | 47 | 0.0 | 3.0 | 0.00 | 0.00 | 0.00 | 80 | 1011.4 | |
| 20260509234018 | 47 | 0.0 | 1.0 | 0.00 | 0.00 | 0.00 | 80 | 1011.4 | |
| 20260509233022 | 47 | 180 | 1.0 | 3.0 | 0.00 | 0.00 | 0.00 | 79 | 1011.4 |
| 20260509232020 | 47 | 158 | 1.0 | 2.0 | 0.00 | 0.00 | 0.00 | 79 | 1011.2 |
| 20260509231018 | 47 | 0.0 | 3.0 | 0.00 | 0.00 | 0.00 | 79 | 1011.1 |